RH
60 63 63 62 62 65 68 71 73 73 73 74 76 79 84 89 94 98 100 99 100 100 100 101 102 95 85 78 72 68 69 75 78 75 72 70 74 85 96 99 97 94 91 86 82 81 81 80 76 66 61 61 58 56 57 55 52 48 46 46 46 45 43 40 34 27 23 22 19 14 12 11 10 10 13 24 43 62 76 87 93 95 98 99 100
56 58 57 57 59 62 63 65 66 69 71 74 79 83 88 94 98 100 100 99 100 100 101 102 98 91 88 86 81 75 74 81 86 81 72 67 67 76 89 99 101 99 97 94 91 91 91 92 91 84 74 67 62 61 62 63 62 57 54 53 51 50 49 46 42 34 28 25 23 19 15 13 11 10 10 14 26 43 57 71 82 89 94 98 100
55 56 57 59 61 63 65 67 69 72 76 79 84 89 95 100 100 99 100 101 101 101 98 91 85 89 95 94 87 82 82 89 94 88 78 69 64 67 78 92 100 101 101 100 99 99 100 99 99 98 93 82 71 67 67 68 70 67 64 62 59 56 55 53 49 43 35 29 27 24 19 16 13 11 11 10 15 27 40 53 65 76 85 92 99
58 60 62 64 66 68 69 72 74 77 81 86 92 97 100 101 100 101 101 100 96 88 75 70 78 93 99 94 90 90 93 99 100 94 86 74 65 64 71 84 96 101 101 101 101 101 101 101 100 101 101 93 82 78 74 71 71 71 70 69 67 65 64 61 57 52 45 36 31 29 25 20 16 13 13 12 11 17 27 38 49 59 68 78 89
64 66 69 70 71 72 73 76 79 84 89 95 99 101 100 101 102 100 94 84 71 55 50 65 89 100 98 95 97 98 100 102 101 96 90 79 70 67 68 78 91 99 101 101 101 102 100 100 100 100 101 98 91 89 86 80 77 75 74 74 72 72 71 68 64 60 54 44 36 34 31 26 21 17 15 14 13 13 19 28 37 45 53 60 71
72 74 75 75 75 76 78 82 87 93 97 100 102 100 99 96 88 76 63 47 35 33 49 78 98 101 99 99 100 100 100 102 100 98 95 87 78 70 67 76 88 95 100 101 102 103 101 99 100 100 101 100 97 97 95 90 84 80 79 79 78 76 73 69 67 63 59 55 47 41 37 33 28 22 20 19 16 13 15 22 29 35 41 47 53
80 80 80 80 81 83 87 92 97 101 102 101 97 88 77 64 50 39 27 21 31 52 72 91 99 100 100 101 100 100 100 101 101 101 101 93 81 70 66 75 87 92 96 99 100 103 102 101 101 100 100 100 100 101 100 95 88 84 84 84 83 81 76 72 69 66 62 60 58 52 47 43 38 30 27 27 22 17 16 17 23 28 33 38 42
86 87 88 90 92 94 96 97 96 94 89 80 67 50 38 28 21 18 14 26 62 88 94 98 101 100 101 101 99 100 101 102 101 101 100 90 79 70 65 74 88 93 95 96 97 100 101 101 101 100 100 100 100 100 101 99 91 84 86 89 87 85 82 77 74 71 67 64 62 61 57 52 48 42 37 33 27 23 22 20 21 24 28 31 36
84 84 84 85 84 82 79 73 67 59 49 38 28 20 16 13 13 14 13 35 79 101 98 99 102 99 100 100 100 100 102 102 101 101 99 88 77 71 65 71 85 93 97 98 97 99 100 101 101 101 100 100 101 100 100 100 94 87 90 96 95 91 87 83 80 76 72 68 65 64 61 57 54 50 45 39 32 29 29 26 23 23 25 26 30
68 64 61 58 54 49 43 37 31 25 19 15 13 11 12 11 14 16 17 38 78 101 100 99 100 99 100 100 100 101 102 102 102 103 100 89 80 73 67 71 81 89 94 98 98 99 101 100 100 100 100 100 101 100 100 101 97 93 95 102 102 97 91 87 83 79 75 72 68 66 62 58 56 53 49 44 40 35 32 30 26 23 23 24 26
52 46 41 35 30 25 21 18 15 13 11 11 12 13 16 18 19 21 25 41 68 90 99 101 99 99 100 100 100 100 101 101 102 104 100 90 80 73 69 74 82 86 87 90 94 98 101 102 101 100 101 100 100 100 100 101 99 96 98 102 103 100 94 89 85 82 78 74 71 68 63 59 56 54 50 46 42 38 35 33 29 24 23 24 23
40 33 27 22 19 16 14 12 12 12 13 15 17 19 22 24 25 26 33 42 54 71 87 97 101 101 100 100 100 100 100 101 102 103 96 83 77 78 81 86 90 88 83 82 86 91 96 100 103 102 101 100 101 101 100 101 100 99 99 102 103 101 96 91 87 83 80 76 72 68 64 61 58 55 51 48 44 41 37 34 30 27 25 24 22
29 23 19 16 14 13 13 14 15 17 19 20 22 24 25 28 29 30 34 41 57 78 93 98 100 101 100 100 101 100 101 103 103 98 87 77 80 90 98 100 97 91 86 83 83 86 91 96 100 102 102 100 100 101 100 100 100 100 100 102 104 102 98 94 90 85 81 78 73 68 64 61 58 55 53 50 46 42 38 35 32 29 27 25 22
21 18 15 14 14 15 17 19 19 20 22 23 24 27 29 31 33 34 36 42 60 84 98 100 100 100 100 100 100 100 103 104 99 89 82 83 91 98 102 102 99 94 89 88 87 87 89 92 95 99 102 102 101 100 100 100 100 100 101 102 103 103 100 96 92 87 83 79 74 69 65 61 57 54 53 51 48 44 40 37 34 31 27 25 23
18 16 15 16 18 20 21 21 21 21 23 25 27 29 32 34 35 37 41 48 62 79 93 99 101 100 101 101 101 103 105 101 92 86 89 95 99 100 100 99 97 94 91 91 92 90 91 92 94 97 101 103 103 102 101 100 100 101 101 101 102 103 101 99 94 89 85 80 75 71 66 63 59 55 53 51 49 47 44 40 37 33 29 25 22
17 17 18 20 21 22 21 21 22 23 25 27 29 32 35 37 38 40 44 53 68 83 95 101 103 101 101 103 105 106 103 97 94 95 98 100 100 101 100 97 95 93 91 92 94 94 95 96 97 97 100 103 104 105 104 102 101 101 101 100 101 102 102 100 95 91 87 81 77 73 68 65 62 58 55 53 51 50 47 43 39 36 31 26 23
19 21 22 22 22 22 23 23 24 25 27 30 33 35 38 39 40 44 49 57 71 87 98 102 104 104 103 104 105 104 100 99 100 100 99 100 101 101 101 98 95 92 91 92 93 92 94 98 99 99 100 102 103 105 104 102 102 102 101 101 103 103 103 101 97 94 89 83 78 74 70 68 64 61 58 55 53 51 48 43 41 39 35 31 27
24 24 23 23 23 24 24 25 27 29 32 35 37 39 40 42 44 48 56 65 74 88 100 105 104 104 103 102 102 101 100 100 100 100 100 101 101 101 101 99 97 94 92 92 92 90 91 96 99 100 100 101 102 104 103 101 101 102 101 101 103 103 102 102 100 96 91 86 81 76 73 70 67 64 61 57 55 53 50 46 44 42 38 35 32
26 25 25 24 25 26 27 29 33 35 38 40 42 44 45 48 52 59 68 78 86 95 103 105 105 103 102 101 101 101 101 100 100 100 100 98 99 103 104 102 99 96 93 90 89 88 90 93 96 100 101 101 103 105 103 101 100 101 101 101 101 101 102 103 101 98 94 90 85 80 77 74 71 68 64 61 58 56 53 50 47 44 41 38 35
26 26 26 26 27 29 32 35 38 40 43 46 47 52 56 61 66 72 81 91 99 103 104 103 102 103 102 102 102 101 100 100 99 98 97 97 101 105 104 102 101 97 92 89 88 89 91 92 95 99 102 103 105 105 103 101 100 100 100 99 96 98 102 104 102 100 98 95 91 87 82 78 75 71 68 65 62 59 56 54 50 46 43 40 37
27 27 28 28 29 32 36 40 43 44 49 54 57 62 69 75 79 83 90 99 104 104 102 100 100 100 101 100 100 100 100 99 98 97 98 101 104 106 104 103 102 100 96 94 94 93 92 91 92 95 100 103 106 105 102 100 101 101 100 97 95 98 103 103 102 102 101 98 96 93 88 84 81 76 73 70 67 63 59 55 52 49 45 41 39
29 29 29 30 32 36 40 43 47 50 56 63 68 71 76 82 86 90 96 102 104 102 100 100 100 101 101 101 100 100 99 99 99 100 101 102 103 106 106 104 102 102 101 99 95 91 88 85 85 89 96 102 105 105 102 100 101 101 100 99 99 101 103 101 100 101 101 101 100 98 94 90 85 81 78 75 71 67 62 57 53 49 46 43 40
31 31 32 33 35 39 43 47 53 61 67 73 76 77 80 84 89 94 99 103 105 104 101 100 101 101 100 100 100 100 101 101 102 102 102 101 102 105 105 104 101 100 98 94 89 85 83 83 84 88 95 101 104 104 102 101 101 101 100 100 100 101 102 101 100 100 100 100 101 100 98 93 89 85 81 77 74 70 64 59 54 50 46 43 40
34 34 35 37 39 43 48 54 63 71 76 80 81 82 84 87 91 95 99 103 106 105 103 101 101 101 101 101 101 101 101 101 102 102 101 100 101 102 103 102 100 98 97 94 91 88 87 87 89 91 95 99 103 105 103 101 100 100 99 100 100 99 97 96 95 94 94 94 95 95 93 91 88 86 83 79 76 73 68 62 57 52 47 43 40
37 38 39 41 44 49 54 62 72 80 84 85 85 86 87 88 90 94 98 102 104 104 103 102 102 103 103 102 101 100 100 101 101 101 101 100 99 100 102 102 101 99 100 99 96 94 93 92 92 92 94 98 102 105 104 101 99 98 98 99 99 99 97 94 92 90 88 88 88 87 88 88 88 86 83 79 75 71 67 63 58 53 49 46 43
40 41 43 45 50 56 62 70 79 86 89 90 91 92 91 89 89 93 98 101 102 103 102 101 101 103 102 101 100 99 99 100 100 101 101 101 100 100 101 102 101 100 100 100 97 94 93 92 92 92 93 95 98 101 103 103 102 101 100 101 103 104 103 101 100 98 95 93 92 92 93 94 93 89 84 79 74 69 65 61 58 55 52 50 47
44 44 46 49 55 62 69 77 84 89 92 94 95 97 97 94 92 93 97 100 101 101 101 99 99 101 101 100 98 97 97 99 101 102 103 102 101 100 100 100 100 100 100 100 98 95 93 93 94 95 94 95 97 98 100 102 103 104 104 103 104 105 104 103 103 102 102 102 101 102 102 100 94 89 83 78 74 70 66 62 57 55 55 54 51
47 48 51 54 60 68 76 84 88 91 93 96 97 100 101 100 97 96 97 99 99 99 100 100 100 99 97 95 95 96 98 101 102 103 102 101 100 100 100 100 100 100 100 100 99 98 97 98 99 99 97 96 97 98 99 100 101 104 105 104 102 101 101 101 101 101 102 102 103 104 104 99 93 88 84 79 75 72 69 65 60 57 58 58 54
51 53 56 60 66 75 82 89 92 93 94 96 98 101 104 104 102 100 101 101 101 100 100 102 100 96 93 93 93 94 96 98 101 101 101 101 102 102 101 101 100 99 100 101 100 99 98 98 97 97 97 97 98 100 101 102 103 103 104 103 101 100 100 100 100 100 99 100 101 103 102 98 93 89 84 79 75 73 71 69 66 64 64 63 60
55 58 61 67 73 80 85 89 92 94 96 96 97 98 102 105 105 103 103 104 104 102 101 101 99 96 93 92 92 91 91 91 93 96 98 100 101 100 98 97 98 99 101 102 102 100 100 101 101 101 101 102 103 104 103 102 102 102 102 102 101 100 101 100 99 99 99 100 102 102 101 98 94 89 83 79 76 76 75 74 73 71 70 68 65
60 63 69 75 80 85 88 90 92 93 96 96 95 94 98 103 105 105 105 106 106 104 102 101 100 99 95 91 89 89 89 87 87 90 93 95 96 95 95 96 98 100 101 101 100 100 101 104 105 106 104 102 103 104 104 103 103 101 99 100 99 99 99 99 99 101 101 101 103 103 102 99 94 88 84 80 78 79 81 80 78 75 73 70 66
68 72 78 83 86 89 92 93 92 91 91 90 89 88 89 93 98 104 107 107 107 105 102 102 104 104 100 96 92 90 88 87 87 87 88 90 90 91 92 95 97 99 100 99 97 97 98 100 101 103 103 101 100 102 104 106 106 102 97 96 98 99 99 99 102 104 102 100 102 104 103 99 94 89 87 85 83 83 84 84 82 78 73 69 66
78 83 87 88 90 92 93 90 87 84 82 80 78 79 79 79 82 90 98 104 106 106 105 105 106 106 103 100 96 93 91 90 90 90 91 91 90 88 89 92 95 97 98 98 97 97 97 97 97 99 100 98 97 99 101 104 105 102 96 94 97 100 101 102 104 105 103 100 102 103 103 100 96 94 93 90 88 86 86 84 81 77 73 71 68
89 92 93 92 92 90 87 84 82 80 78 78 77 76 77 76 75 77 83 89 94 99 102 103 102 100 99 98 96 95 95 94 93 93 92 91 89 88 90 93 95 97 98 97 97 97 97 97 98 99 100 98 95 94 97 101 102 101 98 97 99 102 105 105 104 104 105 104 103 102 103 103 103 100 97 93 90 88 86 84 80 76 74 73 71
96 96 94 92 90 88 85 84 85 85 84 83 83 82 82 82 81 80 80 81 82 85 89 91 90 88 85 83 82 83 83 81 78 77 76 74 74 76 80 83 86 91 94 94 94 96 97 98 100 102 103 101 96 92 94 98 100 101 102 102 102 104 106 106 104 104 105 105 104 102 103 105 105 102 97 94 92 90 86 83 80 77 75 74 72
97 95 92 90 89 89 90 89 89 89 88 87 86 86 85 86 86 87 87 86 85 84 84 85 85 83 78 73 70 69 69 67 63 61 60 57 56 58 63 67 73 80 87 88 88 92 97 100 102 103 102 102 99 96 95 98 100 103 106 105 104 105 107 107 105 105 106 106 104 102 102 102 101 99 96 93 92 89 86 83 80 77 76 74 72
95 93 91 91 91 92 92 92 91 90 88 87 86 86 85 85 86 86 87 89 90 89 89 89 89 89 88 83 77 73 71 68 65 62 58 54 51 50 52 56 61 70 80 85 87 91 97 100 103 104 104 103 102 101 100 101 103 106 107 107 107 107 108 107 104 103 105 106 104 101 101 99 98 96 95 93 93 90 86 83 82 80 78 75 73
95 94 93 92 91 91 90 90 90 90 89 88 87 86 85 85 84 84 84 85 86 87 87 89 90 92 92 91 87 83 78 76 73 70 65 60 56 54 52 52 54 62 75 85 90 94 98 101 103 105 105 104 104 103 103 104 106 108 109 108 108 107 105 101 97 97 101 104 103 101 100 98 96 94 94 95 95 92 89 86 85 84 83 81 78
94 94 94 93 92 92 92 91 90 90 90 90 89 87 86 85 84 84 83 83 82 82 82 83 85 86 88 89 89 86 84 82 81 78 73 69 65 62 58 54 53 58 70 83 91 96 99 101 101 103 103 103 103 104 104 106 108 110 109 109 108 107 104 99 96 98 102 105 103 100 98 96 95 95 97 99 97 96 94 92 89 88 88 88 84
92 93 95 95 93 93 92 91 89 88 88 88 87 86 85 85 84 84 84 83 83 83 82 81 81 82 83 84 85 84 84 85 85 83 79 77 74 69 64 60 57 57 65 79 91 96 99 100 101 101 101 102 102 101 102 106 109 110 110 109 108 106 104 102 102 103 103 103 101 99 97 97 97 99 102 102 100 100 101 99 96 95 95 94 91
94 93 93 92 91 91 91 92 91 91 90 90 90 89 88 88 87 87 87 86 86 86 85 84 84 82 82 82 82 82 83 84 86 86 84 82 79 74 69 66 62 58 61 74 88 96 100 101 101 100 100 101 101 99 101 105 109 110 110 108 106 104 102 103 104 105 104 102 101 100 99 99 101 104 106 105 104 105 106 103 101 101 102 100 99
93 92 91 92 93 93 93 93 94 94 94 94 94 94 94 94 94 93 93 93 92 92 91 90 89 87 86 85 85 84 83 83 84 85 86 86 84 79 74 71 67 62 61 70 85 97 102 102 99 97 98 99 98 98 100 104 106 108 109 108 106 104 103 104 105 107 106 105 104 103 103 104 106 107 107 106 107 108 106 103 101 101 102 102 101
94 95 97 98 98 96 95 93 92 93 94 94 95 96 96 96 97 97 97 97 97 97 96 96 95 94 92 91 90 90 87 85 84 84 85 86 86 82 77 75 73 67 63 67 81 95 102 102 99 98 98 98 98 99 102 104 105 106 109 109 107 105 104 104 105 106 105 104 104 104 106 108 108 107 106 107 109 108 104 101 101 101 101 101 100
101 103 103 102 101 99 97 95 93 93 94 95 96 97 98 98 98 98 99 99 99 98 98 98 98 97 96 95 94 93 92 89 87 86 85 85 86 84 80 77 75 70 63 63 75 91 100 101 100 99 99 99 102 103 104 104 105 106 107 106 104 101 101 102 104 103 102 102 104 106 108 109 107 106 106 108 110 108 104 102 101 100 100 100 100
106 105 104 102 101 99 98 97 96 96 97 98 101 103 103 103 102 101 101 101 100 100 99 99 99 98 97 96 96 96 95 94 92 90 87 85 85 85 82 78 75 71 64 62 74 90 100 101 101 101 102 103 105 104 104 105 106 106 104 102 100 100 100 101 101 101 101 103 105 108 109 107 106 106 108 109 108 108 107 105 102 100 100 101 100
105 103 102 100 99 98 98 98 98 99 100 102 105 107 109 109 108 106 105 104 104 103 103 102 101 100 98 97 97 97 97 96 95 93 91 88 86 85 82 78 76 73 65 63 74 91 100 101 101 104 106 106 105 104 104 105 105 104 101 100 101 101 101 100 99 99 101 104 107 109 109 108 108 109 109 108 108 108 108 107 105 104 104 102 99
102 101 100 99 98 99 100 100 102 103 104 106 108 111 112 113 112 110 109 110 109 109 108 107 106 103 101 99 99 99 99 98 96 95 93 90 87 85 82 78 77 74 66 64 76 93 101 101 102 105 107 107 106 106 106 104 102 100 100 101 101 101 100 100 100 101 103 106 109 109 109 109 109 109 108 108 108 108 107 106 106 107 106 104 101
100 100 100 100 100 101 101 102 105 107 108 109 112 112 110 110 112 113 113 112 111 110 109 108 108 108 106 103 101 99 99 98 97 96 95 91 88 86 82 79 78 75 67 64 78 96 104 102 103 106 108 107 107 106 103 101 100 101 101 101 101 100 100 103 105 106 106 107 109 108 106 106 106 107 108 107 107 106 105 105 105 104 103 101 99
100 100 99 99 100 100 100 101 105 107 108 111 112 109 105 103 106 110 110 108 105 105 103 103 104 106 107 107 105 102 101 99 97 96 95 92 88 86 83 80 79 76 67 65 80 99 105 103 104 107 108 107 107 106 103 102 103 102 100 100 102 103 104 106 107 106 105 107 108 107 105 104 106 107 107 105 102 102 103 103 102 99 96 94 92
99 98 97 97 98 98 98 100 102 104 105 108 109 109 108 108 108 109 108 105 104 103 103 102 101 102 105 108 108 106 103 100 97 96 95 92 89 87 83 80 80 76 67 67 84 102 105 103 105 108 107 106 107 108 106 105 103 101 99 102 106 107 106 105 106 104 104 107 107 105 104 104 104 103 102 100 99 101 102 101 98 94 91 90 89
99 99 99 99 98 98 98 99 100 102 103 105 106 109 111 113 113 111 108 106 105 104 104 103 101 100 102 105 108 107 105 101 99 98 96 92 90 88 84 81 81 75 66 71 91 105 104 103 107 109 107 106 106 106 104 103 102 100 101 104 107 106 105 105 106 104 104 105 104 102 101 101 98 97 97 99 99 99 99 97 94 93 92 92 92
Wind_Speed
45 47 50 54 55 56 56 57 58 60 62 63 63 64 63 63 63 63 63 64 65 66 67 67 67 66 63 60 57 54 52 51 53 56 56 53 49 47 47 46 47 47 45 44 44 45 46 46 44 42 41 40 39 38 38 40 43 44 44 43 43 43 44 44 47 49 46 43 44 44 44 44 42 40 39 40 40 43 46 48 48 47 42 38 39
49 52 55 58 59 61 62 63 64 64 65 65 65 65 64 64 64 63 64 66 68 69 69 68 67 64 61 59 57 55 54 54 56 58 59 57 52 49 47 46 46 45 44 43 44 45 45 45 44 43 42 42 40 38 37 37 40 42 42 42 42 42 43 44 45 49 48 43 42 44 44 44 44 42 41 41 40 41 44 46 47 49 47 43 39
52 55 58 60 62 64 64 65 65 65 65 65 65 65 65 65 64 64 67 71 73 73 71 68 64 61 58 58 58 57 58 58 58 59 61 60 57 53 50 48 45 43 43 42 43 45 46 46 46 44 44 45 43 40 38 36 37 39 39 40 41 41 42 43 44 46 48 45 42 42 43 43 43 43 43 42 41 42 43 45 45 47 48 47 44
55 58 60 62 64 65 65 65 65 65 64 65 65 65 65 66 67 70 74 77 76 73 70 64 59 57 57 59 59 60 61 60 59 60 62 61 59 57 54 51 47 43 41 42 43 44 45 46 47 46 46 47 47 44 42 38 36 36 37 37 39 39 40 41 42 44 46 46 42 40 41 42 42 42 42 42 42 42 43 44 45 46 47 48 48
57 59 61 63 64 65 65 65 65 65 65 65 65 67 69 72 75 79 79 77 73 69 64 57 53 55 58 59 60 61 60 58 58 59 60 60 59 59 58 53 49 44 41 41 43 45 45 44 45 46 46 48 49 47 46 43 39 37 37 37 37 38 38 38 39 41 44 46 44 40 39 40 41 40 40 41 41 41 42 43 44 45 46 47 48
58 60 62 64 65 66 66 65 65 65 66 68 71 75 78 80 80 78 75 71 67 62 56 51 52 55 58 59 59 59 57 55 56 57 57 56 57 59 59 55 50 45 41 41 42 45 47 46 44 44 45 47 48 49 49 48 45 41 38 37 37 37 38 38 39 40 41 44 44 42 38 38 39 39 38 39 40 41 40 41 42 43 45 46 46
58 60 62 64 65 66 66 66 68 70 73 77 80 81 80 77 74 71 68 65 60 54 50 50 53 55 57 57 57 55 51 50 52 53 52 53 55 58 59 55 50 46 43 41 42 44 48 50 49 46 45 46 47 48 49 50 49 45 41 39 38 37 38 38 38 39 40 42 43 42 39 37 38 38 37 38 39 40 40 40 40 40 42 44 45
60 62 63 65 67 69 70 72 74 76 78 78 77 74 71 69 67 64 62 57 51 47 47 49 52 53 53 53 52 49 46 46 49 50 50 52 55 58 59 54 49 46 44 42 42 43 46 50 52 51 49 48 48 48 49 51 52 49 44 41 39 37 37 37 37 38 39 40 41 40 38 37 36 36 36 37 38 38 39 39 39 39 39 41 42
62 63 64 66 68 69 70 71 72 72 71 69 68 66 64 62 60 57 54 51 48 47 46 46 47 49 48 47 46 44 44 46 49 50 50 52 54 58 58 53 48 46 44 42 42 43 45 47 50 53 53 52 51 52 52 53 53 50 47 44 41 38 37 37 37 37 38 39 39 39 38 36 34 34 35 36 38 37 37 38 39 38 38 38 39
59 60 61 62 63 63 63 64 64 64 63 62 60 58 56 55 53 50 48 47 48 49 46 43 44 44 44 44 44 45 47 48 50 50 50 52 55 58 56 51 47 44 42 41 40 42 44 45 46 50 54 55 55 56 55 56 56 53 48 45 42 40 38 37 37 36 37 38 38 39 39 36 33 33 34 34 36 37 36 37 38 38 37 37 37
57 57 58 58 58 58 58 59 58 58 57 55 53 52 51 50 48 46 46 46 47 49 48 46 45 45 46 47 48 48 48 49 50 50 50 52 55 56 53 48 44 42 41 39 38 40 42 43 44 45 49 53 56 57 58 58 57 54 50 46 43 40 38 37 37 36 36 37 38 38 39 36 32 32 33 33 34 36 36 36 38 37 36 37 36
57 56 56 56 56 56 55 55 54 53 52 51 50 50 49 48 47 46 46 46 47 48 49 49 50 50 50 49 49 49 49 50 51 51 52 53 52 50 47 44 42 41 40 39 37 37 39 40 41 42 44 47 50 54 55 56 56 53 50 46 42 40 38 37 36 36 36 37 38 38 38 36 32 31 32 32 32 34 36 36 37 37 36 36 36
56 56 56 56 55 54 53 52 51 51 51 50 50 50 49 49 48 46 46 46 46 46 47 48 49 49 49 49 49 50 51 52 51 51 51 51 48 43 40 40 41 41 41 40 38 37 37 38 39 40 41 43 45 47 48 49 50 48 46 44 42 40 38 36 36 36 36 38 39 38 36 35 33 31 30 31 31 32 35 35 36 36 36 37 38
55 56 56 54 53 52 51 51 51 51 51 51 50 50 50 49 48 47 46 46 46 47 49 50 50 49 49 49 49 50 50 49 49 50 49 47 44 39 38 40 42 42 42 41 39 37 37 38 38 38 38 39 40 41 42 43 44 44 43 42 41 39 37 36 36 36 37 37 38 37 35 34 33 32 30 30 31 31 33 34 35 36 36 37 38
55 55 54 52 51 50 50 51 52 52 52 51 51 50 49 49 48 47 46 46 46 47 50 52 53 52 50 48 47 48 48 49 49 49 47 44 42 40 42 46 46 44 43 41 40 38 36 36 36 36 36 37 37 36 37 38 39 40 41 40 39 38 37 36 36 36 36 36 36 35 34 33 33 33 31 31 31 30 30 32 33 35 36 36 36
53 52 51 50 50 50 51 52 53 53 52 52 51 50 49 48 47 46 45 45 45 46 48 50 51 51 50 49 50 50 49 49 48 46 44 43 42 43 48 51 48 44 42 41 40 38 36 34 35 34 34 34 34 34 34 35 36 38 40 39 38 37 37 36 36 36 36 35 35 34 34 33 33 33 32 31 31 30 30 31 32 33 35 35 35
51 50 50 50 50 51 52 53 53 53 53 52 51 49 48 47 46 45 44 44 44 44 45 46 47 47 48 48 48 47 46 45 45 44 44 43 44 47 51 50 46 43 41 41 40 38 35 34 34 34 34 33 33 33 33 33 35 36 38 38 37 37 36 36 35 35 34 34 34 34 34 34 34 33 32 31 31 32 32 32 30 31 32 33 33
49 50 50 50 51 51 52 53 53 53 52 51 50 49 48 47 46 44 44 43 42 42 42 42 41 41 41 41 42 42 42 43 43 44 45 46 47 50 49 46 43 41 40 40 39 37 35 34 33 33 34 33 32 32 32 32 34 35 36 36 36 36 35 34 34 34 34 34 35 35 34 34 33 33 32 32 31 32 33 32 29 28 30 31 32
48 49 50 50 51 52 52 52 52 52 51 50 49 48 47 46 45 44 43 42 41 40 39 38 37 36 36 37 39 41 42 43 44 46 48 48 48 46 44 42 41 40 40 39 38 36 34 33 32 33 33 32 31 31 31 31 33 34 34 35 35 35 33 33 33 33 33 34 35 35 34 34 33 33 33 32 32 31 32 32 31 30 30 30 30
48 49 50 50 51 51 51 51 50 50 49 49 48 47 46 45 43 42 40 39 39 38 38 37 36 35 36 38 40 41 43 45 46 48 48 45 42 40 39 39 39 40 40 39 37 35 34 33 32 32 32 32 31 31 30 30 31 32 33 33 34 33 32 32 33 33 33 34 34 34 35 34 34 34 34 33 32 31 31 32 31 31 31 30 30
48 48 49 50 50 50 50 50 49 49 48 47 46 45 43 42 41 40 38 37 36 36 37 37 37 37 38 40 42 44 45 47 47 46 44 40 37 35 35 36 37 38 38 37 36 35 34 33 32 31 31 31 31 30 29 28 29 31 32 33 33 32 31 32 33 33 34 34 34 35 35 35 34 34 33 32 31 31 31 32 32 32 32 31 30
48 48 49 49 49 49 49 48 48 47 46 45 44 42 41 39 38 37 36 35 35 35 36 37 37 38 39 40 42 43 44 44 43 41 39 36 33 31 32 33 33 34 36 37 37 36 35 34 31 29 28 29 29 28 27 27 29 31 32 32 31 30 31 32 33 33 34 35 35 35 35 35 34 34 33 32 31 30 31 32 32 33 33 32 32
48 49 49 49 49 49 48 48 46 45 44 43 42 40 38 37 35 35 34 34 34 33 34 35 36 37 37 37 38 38 38 38 37 36 34 33 30 28 29 30 31 33 36 38 38 36 33 31 28 26 25 25 26 26 26 26 28 30 30 29 29 28 30 32 34 35 35 35 35 35 35 34 34 33 33 31 29 30 31 32 33 34 34 34 34
48 49 49 49 49 48 48 46 45 43 41 40 39 38 36 35 33 32 31 31 32 32 32 33 34 35 34 34 34 34 34 33 33 32 31 30 28 27 28 31 33 34 36 36 36 34 31 29 27 25 24 24 24 25 26 27 29 30 30 30 30 31 33 34 35 35 35 35 35 34 34 34 34 33 32 30 29 29 31 32 32 34 34 35 35
48 49 49 49 48 47 46 45 43 40 39 38 37 36 34 33 31 30 30 29 30 30 30 31 32 32 32 32 31 30 30 30 29 29 29 28 27 27 28 30 31 32 33 34 34 32 30 29 27 25 24 23 24 26 28 29 30 31 32 33 33 34 34 35 35 34 34 33 33 32 32 32 31 31 31 30 30 30 30 31 32 33 34 35 35
48 48 49 48 47 46 45 43 40 38 37 36 35 34 32 31 30 29 28 28 28 28 28 29 29 29 29 29 29 28 28 27 26 26 27 27 26 27 27 28 29 30 32 33 32 31 29 28 27 25 24 24 24 26 27 27 28 29 29 30 31 32 32 33 32 32 32 31 31 30 30 29 29 30 31 31 30 30 31 31 31 32 33 34 34
48 48 48 47 47 46 44 42 39 37 36 35 34 33 31 30 29 28 27 26 26 26 27 27 27 27 27 27 27 27 26 24 24 24 25 25 26 26 27 28 28 29 31 31 31 30 29 28 26 25 24 24 24 25 25 25 25 26 26 27 28 30 31 31 31 31 31 30 30 29 29 30 31 31 30 30 30 30 30 31 31 31 30 32 34
48 48 47 47 46 45 43 41 39 37 36 35 34 33 31 30 29 28 26 25 25 25 25 25 25 25 26 26 26 25 23 22 23 23 24 25 25 26 26 26 27 28 29 29 29 29 28 27 26 25 24 24 24 23 23 23 23 24 26 27 28 28 29 29 30 30 30 29 30 30 30 31 31 30 30 30 30 30 30 31 31 30 30 31 33
48 48 47 46 45 44 42 40 38 37 36 35 33 32 32 31 30 28 26 25 26 25 24 24 25 25 26 26 25 24 23 22 22 23 24 24 25 25 26 26 27 27 27 27 27 27 27 26 25 24 24 23 23 22 21 21 21 23 24 26 27 28 28 29 30 30 30 30 30 30 30 30 30 29 29 30 30 30 30 30 30 29 29 30 31
47 47 46 45 44 43 41 39 38 36 35 34 33 32 30 29 29 29 27 26 26 26 25 25 26 26 26 26 26 25 24 23 22 23 23 24 25 27 26 26 25 25 26 26 27 27 26 25 24 23 23 22 22 21 20 21 21 22 24 26 27 28 28 29 30 30 30 30 30 29 29 29 29 29 30 30 30 29 29 29 29 29 29 29 30
47 46 45 44 43 42 40 38 37 36 34 33 33 32 30 28 26 27 26 26 27 27 27 26 27 27 28 28 28 27 26 25 24 23 23 25 26 27 26 25 25 26 26 27 27 27 25 24 24 24 24 24 23 23 22 23 24 25 26 27 28 28 29 30 30 29 29 29 28 28 28 28 29 29 30 30 29 28 28 28 28 28 29 29 30
47 45 44 43 42 41 39 37 36 35 33 32 31 30 30 28 25 24 24 25 25 27 28 28 28 29 30 30 30 29 29 28 27 26 26 26 27 27 27 26 26 26 27 28 27 26 25 24 24 24 25 26 25 24 24 24 25 26 27 26 26 27 28 28 28 28 28 27 26 27 27 28 28 28 29 29 28 27 27 27 27 28 28 29 29
45 44 43 42 41 39 37 36 34 33 32 30 29 28 28 28 26 24 23 23 24 25 26 28 28 29 30 31 31 30 30 28 27 27 26 26 27 27 26 25 25 26 27 28 28 26 26 26 25 25 26 26 25 24 24 25 25 26 26 25 25 26 26 27 27 28 27 26 26 26 26 26 27 27 27 28 27 26 26 26 26 27 28 28 28
43 42 41 40 39 36 35 33 31 30 29 28 27 26 25 26 25 24 23 22 22 23 24 25 26 27 28 28 28 28 27 27 26 25 25 25 25 24 23 21 21 23 24 26 26 26 27 27 27 27 27 26 25 25 24 24 25 25 24 23 23 24 25 26 27 27 26 25 25 25 25 25 25 26 26 26 26 25 25 24 25 26 27 27 27
40 39 39 37 35 33 31 30 29 28 27 27 26 25 24 24 24 23 22 22 21 21 21 21 22 24 25 26 26 25 25 25 24 24 23 23 22 21 20 19 18 19 21 22 23 24 25 27 28 28 28 27 26 25 24 24 24 23 23 23 23 24 25 26 26 25 25 25 25 25 24 24 24 25 25 24 23 23 23 23 23 24 24 24 25
37 36 35 34 32 30 29 28 28 27 26 26 25 25 24 24 23 23 22 22 21 21 20 19 20 21 22 24 24 23 22 23 23 23 22 22 21 19 18 17 16 17 18 20 20 21 22 24 25 26 27 27 26 24 23 23 23 22 22 23 23 23 24 24 24 23 24 24 24 24 23 23 23 23 23 21 20 21 21 21 21 22 21 21 22
34 34 33 32 30 29 28 28 28 27 27 26 26 25 25 24 23 23 22 22 22 22 21 20 20 19 20 22 22 22 21 21 21 21 22 21 20 18 17 16 15 16 17 18 19 19 19 20 21 23 25 26 25 24 23 23 22 22 22 22 23 23 23 23 23 23 24 24 24 23 22 23 23 22 20 19 19 19 19 19 19 19 19 19 19
32 32 31 31 30 30 29 28 28 28 28 27 27 26 25 25 24 24 23 23 23 22 22 21 20 19 19 20 21 21 20 20 20 21 21 21 19 18 16 15 15 15 16 17 17 17 16 17 18 20 22 24 24 24 23 23 22 22 22 22 22 23 23 23 23 22 22 22 22 21 22 22 22 21 19 17 17 17 17 17 17 17 17 17 17
31 30 30 31 31 30 30 29 29 29 29 28 28 27 27 26 25 25 24 24 24 23 23 22 21 21 20 20 19 19 19 19 19 20 20 20 19 17 16 15 15 14 15 16 16 15 15 15 16 17 20 22 24 24 23 22 22 22 22 22 22 22 22 21 20 18 18 19 20 21 22 22 21 19 17 16 16 16 16 16 16 15 15 15 14
31 31 31 31 31 31 31 31 31 30 30 29 29 28 28 27 26 26 25 25 25 25 24 23 22 22 22 21 20 19 18 18 18 19 19 19 19 17 15 14 14 13 13 14 15 14 14 14 14 16 18 21 23 23 23 22 22 22 22 22 21 20 20 19 18 17 18 19 20 21 22 21 19 16 15 15 15 15 15 15 15 14 13 12 12
32 32 32 32 32 32 32 32 32 32 31 31 30 30 29 29 28 27 26 26 26 26 25 24 24 23 22 22 21 20 18 18 18 18 18 18 18 17 15 14 13 13 13 13 13 13 13 13 13 15 17 19 21 22 22 21 21 21 21 20 20 19 19 18 18 18 19 20 20 20 20 19 17 15 14 14 14 14 15 15 13 12 12 11 10
33 33 33 33 33 33 33 33 33 33 32 32 31 31 30 30 29 28 27 27 26 26 26 25 24 24 23 22 22 21 19 19 18 17 17 17 17 16 15 14 12 11 11 12 12 12 12 12 13 14 16 18 19 20 20 20 19 19 19 19 19 18 18 17 18 18 19 19 19 19 18 16 15 14 14 14 14 14 15 14 13 12 11 11 11
34 34 34 33 34 34 34 34 34 33 33 33 32 31 31 30 29 28 28 27 26 26 26 25 24 24 24 23 22 21 20 19 18 17 16 16 16 15 14 13 12 11 11 12 12 11 10 10 12 13 15 16 17 17 18 18 17 17 18 18 17 17 17 17 17 17 17 17 17 17 16 15 14 13 14 14 14 14 14 13 12 12 12 12 12
35 35 35 34 34 34 34 35 35 34 34 34 33 32 31 30 29 28 28 27 26 26 26 25 24 24 24 23 22 21 20 20 19 18 16 15 15 14 13 13 12 11 11 11 11 10 9 10 11 12 13 14 15 16 16 16 16 16 17 17 17 17 16 16 16 16 16 16 16 15 14 14 13 13 14 14 14 14 13 13 12 13 13 13 13
36 36 36 35 35 35 35 35 35 35 34 33 32 31 30 29 29 28 27 27 26 26 25 25 24 24 23 23 22 21 20 20 19 18 17 15 14 13 13 12 12 11 10 10 10 9 9 9 11 12 13 14 14 15 15 15 15 15 16 16 16 15 15 15 15 15 14 14 14 13 13 13 13 13 13 13 13 13 12 12 12 13 13 14 13
37 36 36 36 36 35 35 34 33 33 32 30 29 28 28 27 27 26 26 26 26 25 25 24 24 23 23 23 22 21 20 20 19 18 17 15 14 13 12 12 11 10 9 9 9 9 8 9 11 12 13 13 14 14 14 14 14 14 14 14 14 14 13 13 13 13 13 13 12 12 12 12 12 12 12 12 12 11 11 11 12 12 13 14 14
37 37 37 36 36 35 34 32 31 29 28 27 27 25 24 24 24 24 24 24 24 24 23 23 23 23 23 22 22 21 20 20 19 18 17 15 14 13 12 11 10 10 9 9 9 9 9 10 12 13 13 13 13 13 13 14 14 13 13 13 13 13 13 13 13 12 12 12 12 11 11 11 11 11 11 11 10 10 10 10 11 12 13 14 14
37 37 36 36 35 34 32 30 28 26 25 25 24 23 22 21 21 21 21 21 21 21 22 22 22 22 21 21 21 21 20 19 19 18 17 15 14 13 12 11 10 9 9 9 9 9 9 10 12 13 13 13 13 13 13 13 13 13 12 12 12 12 12 12 12 12 11 11 11 10 10 10 10 10 10 9 9 9 9 9 10 10 11 13 14
36 36 35 34 33 32 30 28 26 25 24 23 22 21 20 19 19 19 19 18 18 18 19 19 19 19 20 20 20 20 19 19 19 17 16 15 14 13 12 11 10 9 9 9 9 9 9 10 12 13 13 13 13 13 13 12 12 12 12 12 12 12 12 11 11 11 10 10 9 9 9 10 9 9 9 8 8 8 9 9 9 9 10 11 13
35 35 34 33 32 30 29 28 26 24 23 22 21 20 19 18 17 17 17 16 16 16 16 16 16 17 17 18 18 18 19 18 18 17 16 15 14 13 12 11 10 9 9 9 10 10 10 11 13 13 14 14 13 13 12 12 12 12 12 12 11 11 11 10 10 9 9 9 9 9 9 8 8 8 8 8 8 8 8 8 8 9 10 10 12
34 34 33 32 31 30 29 27 26 24 23 22 21 20 18 17 17 16 16 15 14 14 14 13 13 14 15 15 16 17 17 17 17 16 15 15 14 13 12 11 9 9 9 10 10 10 11 12 13 14 14 14 13 12 12 12 12 12 11 11 10 10 10 9 9 8 8 8 8 8 7 7 7 7 7 8 8 8 8 8 9 10 10 11 12
Wind_Direction
281 281 282 285 288 289 290 289 288 288 288 289 290 291 293 293 293 293 294 294 296 297 297 298 298 297 296 294 293 293 293 293 294 294 293 292 291 287 282 278 275 274 272 271 270 271 272 273 272 270 268 265 263 261 258 256 255 256 256 257 257 259 260 261 263 263 261 260 259 258 256 255 254 255 257 256 254 252 250 248 247 246 244 241 238
281 283 286 289 290 290 290 289 288 288 287 288 289 290 290 290 291 291 290 292 294 295 296 296 295 294 292 291 291 292 292 291 292 293 293 293 292 290 285 279 276 273 272 270 269 270 271 271 272 272 271 270 266 263 260 256 255 255 255 256 256 257 259 259 262 264 263 260 259 259 259 257 255 254 255 256 255 254 252 249 248 247 247 244 240
285 287 289 290 290 289 289 287 286 285 285 285 286 287 287 288 287 287 288 291 293 294 294 294 292 290 288 288 289 290 290 289 288 290 292 292 293 293 290 283 278 273 269 268 267 267 268 269 269 270 271 272 270 267 264 259 255 253 253 255 256 256 257 258 260 263 264 262 260 259 259 258 256 255 255 256 256 255 253 251 249 247 248 248 244
287 287 287 287 287 286 284 284 283 282 282 283 283 284 284 284 285 286 289 291 292 293 292 290 288 286 285 286 287 287 286 286 286 287 290 290 291 294 293 286 280 274 267 264 262 263 266 268 268 269 269 270 271 271 269 264 259 255 254 254 255 255 256 258 259 262 264 264 261 260 260 260 257 256 255 256 256 256 254 253 250 248 248 249 247
286 286 285 284 284 282 281 280 280 279 280 280 281 282 283 285 287 289 291 291 291 290 289 288 286 284 283 284 283 283 283 283 284 285 287 288 289 293 293 287 281 276 268 262 257 255 258 263 266 267 267 268 270 271 272 270 265 260 257 255 254 255 255 256 258 261 264 266 265 262 261 261 260 258 257 256 255 255 254 253 252 250 248 248 249
284 284 283 282 280 279 278 277 277 278 279 281 283 285 287 289 289 290 290 289 289 289 288 287 284 281 281 280 280 281 281 281 281 282 283 285 288 292 293 287 280 277 271 263 258 253 251 253 257 260 262 264 267 269 271 272 270 265 262 260 258 256 255 255 256 258 261 265 267 265 262 262 261 259 259 258 257 255 254 252 252 252 251 249 248
283 282 281 280 278 277 277 277 278 280 282 284 287 288 289 289 289 289 289 289 289 289 288 284 281 279 279 279 279 280 280 277 277 279 282 286 289 291 290 285 280 278 273 266 260 255 250 248 250 253 255 258 261 264 266 269 270 269 266 263 261 259 257 256 256 257 258 261 264 265 264 263 262 261 260 260 259 257 256 253 251 251 252 251 250
282 280 279 279 278 278 279 280 281 283 284 286 287 288 289 289 289 289 289 288 286 284 282 281 279 279 278 278 279 277 273 271 274 280 285 288 290 290 288 283 280 278 274 268 262 258 253 249 247 248 251 253 256 259 261 264 267 268 268 266 265 262 259 258 258 258 258 259 260 262 262 261 261 261 261 260 259 258 258 257 254 251 251 251 252
283 282 280 280 280 281 281 282 283 284 285 286 287 288 289 289 289 288 286 282 277 275 278 281 280 278 277 275 273 269 267 270 277 284 288 289 290 289 286 282 279 277 273 268 263 259 256 252 248 246 247 250 253 255 257 260 264 267 269 268 267 265 262 260 259 258 258 259 260 261 261 259 259 260 260 260 260 259 259 260 258 254 252 250 251
287 286 285 284 284 284 285 285 286 287 288 288 289 289 290 290 289 288 284 278 273 273 276 277 274 271 269 267 266 265 267 273 280 285 288 289 289 287 284 281 280 276 271 266 262 258 257 254 251 248 246 247 249 252 255 258 261 265 268 267 267 265 262 260 259 259 259 259 260 261 261 259 258 259 258 259 260 260 260 260 259 258 255 252 251
291 290 289 289 288 289 289 290 290 291 291 292 292 293 293 293 292 290 285 280 275 272 272 271 268 266 265 265 264 265 268 275 281 285 287 287 287 285 283 283 282 277 272 267 262 258 257 256 255 252 249 247 248 249 252 255 259 263 265 265 264 262 260 259 258 258 259 260 260 261 262 262 260 260 259 258 259 260 260 260 260 259 258 255 252
294 294 293 293 294 294 295 295 295 295 295 296 296 296 295 294 293 290 285 281 277 274 271 269 268 267 266 265 266 268 272 278 282 285 285 285 284 284 285 287 285 280 275 270 265 261 259 257 256 254 252 250 249 249 250 253 257 260 261 262 261 260 259 259 258 258 259 260 259 259 261 263 263 262 262 260 258 259 260 260 260 260 260 258 255
297 297 298 298 298 299 299 299 298 298 298 298 298 297 296 294 292 289 284 280 276 272 269 267 265 265 266 269 272 275 278 281 283 283 282 282 283 283 284 285 284 280 277 274 270 265 260 257 255 253 252 252 251 251 251 252 254 256 257 257 257 256 256 257 258 259 259 259 259 259 260 262 262 261 261 261 259 259 260 260 260 260 259 259 257
300 300 301 301 301 301 301 301 301 300 300 299 298 297 295 293 291 288 285 280 274 269 265 265 266 269 272 275 277 279 280 280 280 280 280 281 281 280 280 281 281 278 277 276 272 268 263 260 258 255 253 252 252 251 252 252 253 253 253 254 254 254 254 254 255 256 258 259 260 261 262 262 262 260 259 259 258 257 258 259 259 259 258 258 258
302 302 302 302 302 302 302 302 302 301 301 300 298 297 295 293 291 288 285 281 276 270 267 267 270 274 276 276 277 278 278 278 277 278 280 279 277 275 278 281 281 278 276 275 273 270 266 263 261 258 256 254 253 251 250 250 251 251 251 251 252 252 252 253 253 255 256 259 261 263 264 264 264 262 260 259 258 257 256 256 257 259 258 257 257
303 302 302 302 302 303 303 303 302 302 301 300 298 297 295 293 291 289 286 282 278 274 271 270 271 272 273 274 274 275 275 275 275 277 277 274 273 276 280 282 280 276 273 272 271 269 266 263 261 259 256 254 253 251 249 247 247 248 249 250 249 250 251 251 252 254 255 257 259 261 262 262 262 262 261 261 261 260 256 253 254 257 258 258 256
302 302 302 303 304 304 304 303 303 302 301 300 299 297 296 294 292 290 287 284 280 276 273 272 271 271 271 271 271 271 272 273 274 274 272 270 273 277 279 279 276 273 271 270 268 267 264 262 260 258 256 253 251 250 249 247 246 245 247 248 247 247 248 249 251 253 254 256 256 257 258 258 259 260 260 260 261 261 260 257 256 257 259 259 258
303 303 304 305 305 305 305 305 304 303 302 301 300 299 297 295 294 291 288 286 283 279 277 275 273 270 269 269 269 269 270 270 270 270 269 270 274 277 278 277 274 271 268 267 265 264 262 260 258 256 255 253 251 250 249 248 247 246 246 247 246 245 245 246 247 249 251 252 253 254 255 257 258 259 259 259 260 262 265 264 262 259 258 259 259
304 305 305 306 307 307 306 305 304 303 302 301 301 300 298 297 295 292 290 287 284 281 278 274 270 267 265 265 266 267 267 268 268 268 270 272 275 276 275 272 270 267 265 264 263 262 261 259 257 256 255 254 251 249 248 248 248 247 246 246 246 245 244 244 245 246 247 249 252 253 254 255 256 257 257 258 259 261 264 266 266 262 259 258 258
305 306 307 308 308 307 306 305 304 303 303 302 301 300 299 298 296 293 290 287 284 281 277 272 268 265 264 264 265 266 266 267 268 270 272 273 274 272 269 266 265 264 264 263 263 263 260 258 256 254 254 253 251 249 247 247 248 248 247 246 246 245 245 245 244 244 245 248 250 252 253 254 255 256 257 258 259 260 262 264 266 265 263 259 257
306 307 308 308 308 307 306 305 304 304 304 303 302 301 300 299 297 294 291 287 283 279 275 273 270 267 265 265 265 265 266 267 269 271 272 272 270 266 263 261 261 263 264 264 263 261 258 255 252 250 251 251 251 250 248 247 248 249 248 247 246 246 245 244 244 244 245 246 248 250 252 253 255 257 259 261 262 263 263 264 265 266 265 262 259
307 308 308 308 308 307 307 306 305 305 304 303 302 301 300 299 296 294 291 287 283 279 276 274 272 270 268 267 267 267 268 269 270 271 270 268 265 261 259 259 259 260 261 260 259 257 257 255 253 251 251 251 251 250 249 246 245 246 247 247 247 247 247 246 244 243 243 244 246 248 250 252 255 257 260 262 264 266 265 265 264 264 264 263 261
308 309 309 309 309 308 307 307 306 305 304 303 302 302 301 299 297 294 291 287 283 280 276 274 272 271 270 269 269 269 269 269 269 269 268 265 262 257 255 254 254 254 255 257 258 259 260 260 260 256 253 251 249 247 245 244 243 244 245 246 246 245 246 246 244 243 242 242 244 246 249 252 254 257 260 263 265 265 265 263 263 263 262 262 261
309 309 310 310 309 308 308 307 306 305 304 303 302 302 301 299 297 294 291 287 283 280 277 274 273 272 271 270 269 269 268 268 267 266 265 262 259 254 252 251 251 253 256 259 261 262 263 262 260 256 251 247 245 243 240 238 238 239 240 241 240 240 240 242 243 244 245 245 246 247 249 252 254 257 258 259 258 259 260 262 262 263 263 262 261
310 310 310 309 309 308 308 307 306 305 304 302 301 301 301 299 298 295 291 287 284 281 279 276 274 274 272 270 269 268 267 267 266 265 264 262 259 255 252 252 253 255 258 260 261 262 262 261 259 256 251 247 244 242 241 239 239 239 240 241 242 243 244 245 247 249 250 250 251 251 252 254 256 256 256 254 253 253 255 257 259 261 262 263 262
310 310 309 309 308 308 307 306 305 304 302 300 300 300 300 299 298 296 292 289 286 283 281 278 276 275 274 273 271 269 267 267 266 265 264 262 260 257 254 253 253 254 256 259 260 261 261 260 259 256 252 248 245 243 243 244 245 245 245 246 247 248 249 249 250 251 252 253 253 254 254 255 255 255 254 254 254 255 255 256 256 257 259 260 260
309 309 309 308 308 307 306 306 304 302 300 298 298 298 298 298 297 296 293 290 287 285 282 280 279 278 276 274 272 271 270 269 267 265 263 261 259 256 254 253 252 252 254 257 259 260 260 260 260 258 255 252 249 247 245 244 245 245 245 246 246 247 248 249 250 250 250 251 252 252 252 252 252 253 254 256 256 257 257 257 256 255 255 255 256
309 309 308 308 308 307 306 304 302 300 298 296 296 296 295 295 294 294 293 291 287 285 284 282 281 279 277 276 275 274 272 270 267 264 261 259 258 257 256 255 253 253 254 255 257 258 258 258 257 256 256 254 253 252 251 248 245 243 242 241 241 243 245 246 248 248 248 249 249 248 249 250 251 253 254 256 257 257 258 258 258 257 255 253 253
308 308 308 308 307 305 304 302 300 298 297 295 295 294 293 293 293 292 292 290 288 287 286 284 281 279 279 278 277 275 271 268 266 264 262 261 260 259 256 254 254 254 255 256 256 256 256 256 257 256 257 258 258 257 255 251 248 245 242 239 238 239 240 242 243 244 244 245 245 246 248 250 252 253 254 255 256 257 258 259 259 258 256 254 253
308 308 308 307 305 303 302 301 299 297 296 296 295 293 292 291 291 290 289 288 286 286 285 284 283 283 282 280 278 277 274 270 267 265 265 264 263 261 259 257 257 258 257 257 256 256 256 258 258 258 258 257 256 254 251 247 244 241 239 237 235 235 236 238 239 240 242 243 245 247 248 250 251 253 254 255 256 257 258 259 258 256 255 254 252
308 308 307 305 304 302 302 300 299 298 298 297 295 294 293 291 288 287 285 283 282 283 283 282 283 283 282 281 280 280 278 276 273 271 268 266 265 264 264 263 261 259 258 257 256 256 257 256 255 255 254 252 250 248 246 243 240 238 236 235 234 233 234 236 238 240 241 243 245 247 248 249 250 251 253 255 256 256 256 257 257 256 255 253 252
308 307 306 304 302 302 302 301 301 300 299 298 296 296 295 293 290 286 282 279 277 278 279 280 280 280 280 281 282 281 280 280 279 277 274 271 269 267 265 263 262 261 261 260 259 258 257 255 253 251 251 250 249 247 244 242 241 241 239 238 236 235 235 236 238 239 240 241 243 245 246 248 250 252 254 256 257 256 256 256 256 256 255 254 253
307 306 305 303 303 303 303 302 302 301 300 299 299 297 295 294 292 289 284 280 277 275 275 276 276 277 278 280 281 282 283 283 282 280 277 275 272 270 268 267 266 264 262 261 260 257 255 252 250 248 247 247 247 246 244 242 242 243 243 241 238 237 237 236 236 237 238 239 241 243 246 248 250 252 254 256 258 257 257 256 255 255 255 254 253
307 305 304 304 304 304 304 303 303 303 303 302 301 300 298 296 295 293 289 285 281 277 275 275 276 277 279 280 281 283 285 285 284 283 281 278 276 275 275 273 269 265 262 260 258 255 251 248 246 245 245 245 244 243 242 242 242 243 244 242 239 237 237 237 237 237 238 238 239 242 244 247 249 251 253 255 257 258 258 257 255 254 254 254 254
306 305 304 304 305 305 305 305 305 305 304 304 303 302 300 298 297 296 294 290 286 281 278 277 277 279 280 282 283 284 285 285 285 284 282 281 280 280 279 276 272 268 265 262 259 255 251 247 245 243 242 242 241 241 240 240 240 241 240 239 237 235 235 236 237 238 238 238 239 241 243 244 246 249 250 253 255 257 257 256 255 254 253 253 253
306 305 304 305 305 306 306 306 306 305 304 304 303 302 301 300 299 298 297 295 292 289 286 283 280 280 281 282 284 284 285 285 285 285 284 283 283 282 280 278 274 269 266 264 262 258 254 250 246 243 241 240 239 238 237 237 238 237 237 236 234 233 233 235 235 236 238 238 239 239 241 243 245 248 250 253 255 255 255 254 253 253 252 251 251
306 305 305 306 306 307 306 305 305 304 304 303 302 302 301 300 299 298 297 295 294 293 292 290 288 285 284 284 284 285 285 284 284 285 284 284 284 285 283 279 274 269 268 267 265 263 260 255 250 244 240 238 236 234 233 233 233 234 234 234 232 231 232 232 232 234 235 235 235 236 239 243 247 250 253 255 255 254 252 250 250 251 251 249 248
307 307 307 307 307 307 306 305 304 303 303 302 301 300 299 298 296 295 294 293 292 291 290 290 289 287 284 284 284 285 285 285 284 283 282 283 284 285 283 280 275 270 268 268 268 267 265 259 252 244 238 234 232 230 229 229 229 230 232 232 232 232 232 232 234 236 234 231 231 234 239 245 249 253 255 254 252 251 250 247 246 245 246 247 246
309 308 308 307 307 307 306 305 303 302 301 300 299 297 296 295 293 292 291 290 289 288 288 287 287 286 284 283 283 283 283 283 282 281 281 282 283 283 281 280 276 272 268 267 268 268 265 259 251 243 235 230 227 225 224 224 225 227 229 230 231 232 232 234 236 236 232 229 231 237 242 247 252 254 253 250 248 246 245 243 240 238 239 242 244
310 310 309 308 307 307 306 305 304 302 301 299 297 296 294 293 291 290 288 287 286 286 285 284 283 282 282 281 281 281 281 281 281 281 281 282 282 281 279 278 276 272 268 266 266 266 264 257 249 239 232 227 223 221 219 219 222 225 227 228 230 231 232 233 232 231 229 231 235 240 245 249 252 251 248 246 244 242 239 236 232 231 232 235 238
311 311 310 309 308 307 306 305 303 302 300 298 297 295 293 291 290 288 286 285 283 282 282 281 280 279 279 279 279 279 279 278 278 278 279 280 280 280 278 276 273 270 266 263 264 264 261 255 245 234 227 223 220 218 216 216 218 221 225 227 228 229 230 230 229 229 231 234 237 242 246 248 249 246 244 242 240 237 233 229 226 225 226 226 226
311 311 310 309 307 306 305 304 302 301 299 297 295 294 292 290 288 286 284 283 281 280 279 278 278 277 277 276 276 276 275 274 274 275 275 276 277 277 276 274 272 270 265 261 260 260 259 252 242 231 223 218 216 216 215 215 216 219 222 225 226 227 227 227 228 229 232 235 238 242 245 246 245 242 240 239 236 232 227 223 222 221 221 219 216
311 310 309 308 307 306 305 303 302 301 299 297 295 293 290 288 287 285 283 281 279 278 277 276 275 274 274 273 273 272 272 271 271 270 271 272 272 273 274 273 270 265 258 255 254 255 253 245 236 228 221 215 213 212 213 214 216 217 219 221 222 223 223 224 226 229 231 233 236 239 242 243 242 240 238 235 232 228 223 220 220 220 219 217 214
311 310 309 307 307 305 304 303 302 301 299 297 295 292 290 288 285 283 282 280 277 276 275 274 272 271 270 270 269 268 268 267 267 267 267 268 269 270 269 268 264 259 254 251 251 250 245 234 226 220 215 211 209 210 212 213 214 214 215 217 218 219 220 221 223 225 227 230 233 236 238 239 237 236 235 233 229 225 222 220 219 219 218 216 215
310 309 309 308 307 305 304 303 302 300 299 297 294 292 290 287 285 283 280 278 276 274 273 272 270 269 267 266 266 265 264 264 264 264 264 263 264 265 264 262 260 257 252 249 246 244 237 225 217 212 208 207 207 208 209 211 212 212 212 213 215 217 219 220 222 223 225 229 232 233 234 233 232 231 231 229 225 223 223 221 220 220 219 217 217
311 310 309 308 307 306 305 304 303 301 299 297 295 292 290 287 285 283 280 278 276 273 271 270 268 266 264 263 262 261 261 260 260 260 260 259 259 259 259 258 256 253 247 242 239 237 229 217 210 206 204 204 205 205 206 207 208 208 209 211 213 215 217 218 220 224 227 230 231 230 228 227 227 226 225 224 223 222 223 222 222 222 221 221 222
311 310 310 309 308 308 307 306 305 303 301 299 296 294 291 289 285 283 280 278 276 273 271 269 266 263 261 259 257 257 256 255 255 255 255 254 253 252 253 253 250 246 239 232 229 227 220 210 204 201 200 200 200 200 201 201 202 203 206 208 209 211 214 216 220 224 226 226 226 224 221 221 221 220 218 219 220 220 221 222 223 224 224 224 225
312 311 310 310 310 309 309 308 307 305 302 300 298 296 294 291 287 284 281 278 276 273 271 268 265 262 259 256 254 252 250 250 250 250 249 248 246 246 246 246 243 238 230 222 219 218 212 204 199 196 195 194 194 193 194 195 196 198 200 201 203 207 211 215 218 219 219 218 218 216 214 213 214 214 214 214 215 215 217 220 222 224 226 226 227
313 312 312 311 311 310 310 309 307 305 303 300 298 297 296 293 289 286 282 279 276 273 270 267 264 261 257 254 252 249 246 245 244 243 243 242 240 238 238 238 236 230 221 213 210 209 204 198 194 191 190 188 187 187 187 188 190 191 193 195 199 204 209 212 212 211 210 210 209 207 206 206 208 210 210 210 210 210 211 213 216 220 223 225 228
314 314 313 313 311 310 310 309 307 305 302 299 297 295 294 291 288 286 283 280 276 273 270 267 263 260 256 252 248 245 242 239 237 236 236 234 232 230 230 229 227 220 211 205 202 201 196 190 187 185 184 182 181 180 181 182 183 185 188 192 197 202 204 205 204 202 200 200 201 200 200 202 203 205 204 203 204 205 205 207 212 216 219 222 226
316 315 314 313 311 310 309 308 306 304 301 298 295 293 291 288 286 283 281 278 275 272 270 267 263 258 254 250 245 241 238 234 231 229 227 225 223 222 222 220 217 211 203 198 196 193 188 183 181 179 178 176 174 174 174 175 177 180 185 189 194 196 197 196 193 191 191 193 195 194 194 194 195 197 196 196 199 201 205 209 212 213 215 218 221